Regional Weather Roundup
Issued by NWS Albany, NY

Home | Current Version | Previous Version | Text Only | Print | Product List | Glossary On
Versions: 1 2 3 4 5 6 7 8 9 10 11 12 13 14 15 16 17 18 19 20 21 22 23 24 25 26 27 28 29 30 31 32 33 34 35 36 37 38 39 40 41 42 43 44 45 46 47 48 49 50
000
ASUS41 KALY 270410
RWRALY

NEW YORK STATE HOURLY WEATHER ROUNDUP
NATIONAL WEATHER SERVICE ALBANY NY
1100 PM EST WED NOV 26 2014

NOTE: "FAIR" INDICATES FEW OR NO CLOUDS BELOW 12,000 FEET WITH NO
SIGNIFICANT WEATHER AND/OR NO OBSTRUCTIONS TO VISIBILITY.

NYZ032-033-038>043-046>054-057>066-NYZ062>081-270500-
EAST


CITY           SKY/WX    TMP DP  RH WIND       PRES   REMARKS
ALBANY         LGT SNOW  31  28  89 N12       29.91S FOG     WCI  22
GLENS FALLS    LGT SNOW  31  27  85 N14       29.91F FOG     WCI  21
POUGHKEEPSIE   LGT SNOW  34  29  82 N14G23    29.85S WCI  25
MONTGOMERY     FLURRIES  33  31  92 N3        29.85R
WHITE PLAINS   LGT SNOW  33  30  88 NW21G29   29.78R FOG     WCI  21
ISLIP          LGT SNOW  36  33  89 N18G29    29.73R FOG     WCI  26
NEW YORK CITY  FLURRIES  36  32  85 N21G29    29.80S WCI  25
CENTRAL PARK   CLOUDY    35  32  88 VRB6      29.83R WCI  30
$$

NYZ005>009-017-018-044>046-055-056-270500-
CENTRAL


CITY           SKY/WX    TMP DP  RH WIND       PRES   REMARKS
FULTON         LGT SNOW  29  26  89 N7        30.00F FOG     WCI  22
SYRACUSE       LGT SNOW  28  26  92 NW8       29.99F FOG     WCI  20
ROME           LGT SNOW  29  28  96 W6        29.97S FOG     WCI  23
ELMIRA         CLOUDY    31  26  82 VRB6      29.97S WCI  25
BINGHAMTON     FLURRIES  39  26  59 NW9       29.88S WCI  33
MONTICELLO     CLOUDY    30  27  86 NW8       29.84R WCI  23
$$

NYZ026>034-041>043-270500-
NORTH


CITY           SKY/WX    TMP DP  RH WIND       PRES   REMARKS
WATERTOWN      LGT SNOW  30  23  75 N9        30.01F WCI  22
FORT DRUM      NOT AVBL
MASSENA        CLOUDY    31  21  66 NE10      30.04F WCI  22
SARANAC LAKE   LGT SNOW  24  32 100 NE7       29.91F WCI  16
PLATTSBURGH    LGT SNOW  29  26  89 N14       30.00F FOG     WCI  18
$$

NYZ001>004-010>016-019>021-270500-
WEST


CITY           SKY/WX    TMP DP  RH WIND       PRES   REMARKS
NIAGARA FALLS  CLOUDY    31  23  72 NE8       30.06R WCI  23
BUFFALO        FLURRIES  30  24  78 NE8       30.05S WCI  22
DUNKIRK        FLURRIES  30  26  85 NE9       30.04F WCI  22
JAMESTOWN      CLOUDY    28  25  86 CALM      29.97S
WELLSVILLE     CLOUDY    27  24  89 NW3       29.95S
ROCHESTER      FLURRIES  31  27  85 N7        30.04S WCI  24
PENN YAN       LGT SNOW  28  26  92 N3        30.00R FOG
$$

             KEY
       WCI = WIND CHILL INDEX
       VSB = VISIBILITY
       HX  = HEAT INDEX
$$


USA.gov is the U.S. government's official web portal to all federal, state and local government web resources and services.